Weather History for OTBD - August, 2014

Change the Weather History Date:

Saturday, August 16, 2014

  Actual Average Record
Temperature  
Mean Temperature 98 °F -  
Max Temperature 105 °F 103 °F 111 °F (2011)
Min Temperature 90 °F 82 °F 83 °F (2012)
Cooling Degree Days 32    
Growing Degree Days 48 (Base 50)    
Moisture  
Dew Point 81 °F    
Average Humidity 62    
Maximum Humidity 84    
Minimum Humidity 38    
Precipitation  
Precipitation 0.00 in 0.00 in - ()
Sea Level Pressure  
Sea Level Pressure 29.45 in    
Wind  
Wind Speed 5 mph ()    
Max Wind Speed 13 mph    
Max Gust Speed -    
Visibility 4.5 miles    
Events      
Averages and records for this station are not official NWS values.
T = Trace of Precipitation, MM = Missing Value Source: Averaged Metar Reports

Daily Weather History Graph

Daily Weather History Graph

Search for Another Location

Airport or City:

Trip Planner

Search our weather history database for the weather conditions in past years. The results will help you decide how hot, cold, wet, or windy it might be!

Date:

Astronomy

Aug. 16, 2014 Rise Set
Actual Time 5:07 AM AST 6:08 PM AST
Civil Twilight 4:43 AM AST 6:31 PM AST
Nautical Twilight 4:15 AM AST 7:00 PM AST
Astronomical Twilight 3:46 AM AST 7:29 PM AST
Moon 10:19 PM AST (8/16) 10:47 AM AST (8/16)
Length of Visible Light 13h 48m
Length of Day
13h 00m
Waning Gibbous, 62% of the Moon is Illuminated
Aug 16
Waning Gibbous
Aug 17
Last Quarter
Aug 25
New
Sep 2
First Quarter
Sep 9
Full

Hourly Weather History & Observations

Time (AST) Temp. Heat Index Dew Point Humidity Pressure Visibility Wind Dir Wind Speed Gust Speed Precip Events Conditions
12:00 AM 92 °F - 82 °F 67% 29.47 in 6 mi East 3.5 mph - -  
12:00 AM 91.4 °F 114.3 °F 82.4 °F 75% 29.44 in - East 3.5 mph - N/A   Clear
1:00 AM 91.4 °F 114.3 °F 82.4 °F 75% 29.44 in 5.6 mi NNE 3.5 mph - N/A   Unknown
1:30 AM 91.4 °F 114.3 °F 82.4 °F 75% 29.44 in 5.0 mi NE 5.8 mph - N/A   Unknown
2:30 AM 91.4 °F 117.8 °F 84.2 °F 79% 29.44 in 3.7 mi NNE 5.8 mph - N/A   Unknown
3:00 AM 91 °F - 84 °F 76% 29.46 in 4 mi ENE 3.5 mph - -   Haze
3:00 AM 91.4 °F 117.8 °F 84.2 °F 79% 29.44 in 4.3 mi ENE 3.5 mph - N/A   Unknown
3:30 AM 91.4 °F 117.8 °F 84.2 °F 79% 29.44 in 4.3 mi East 3.5 mph - N/A   Unknown
4:00 AM 89.6 °F 115.0 °F 84.2 °F 84% 29.44 in 4.3 mi ESE 3.5 mph - N/A   Unknown
4:30 AM 89.6 °F 111.1 °F 82.4 °F 79% 29.44 in 4.3 mi SSE 4.6 mph - N/A   Unknown
5:00 AM 91.4 °F 117.8 °F 84.2 °F 79% 29.44 in 4.3 mi South 3.5 mph - N/A   Unknown
5:30 AM 91.4 °F 117.8 °F 84.2 °F 79% 29.47 in 3.7 mi SSW 3.5 mph - N/A   Unknown
6:00 AM 91 °F - 84 °F 76% 29.49 in 4 mi WSW 3.5 mph - -   Haze
6:00 AM 91.4 °F 117.8 °F 84.2 °F 79% 29.47 in 3.7 mi WSW 3.5 mph - N/A   Unknown
6:30 AM 93.2 °F 120.9 °F 84.2 °F 75% 29.47 in 4.3 mi West 3.5 mph - N/A   Unknown
7:00 AM 93.2 °F 120.9 °F 84.2 °F 75% 29.47 in 4.3 mi SW 5.8 mph - N/A   Unknown
9:00 AM 101 °F - 79 °F 40% 29.52 in 4 mi West 3.5 mph - -   Widespread Dust
9:00 AM 100.4 °F 119.5 °F 78.8 °F 50% 29.50 in 4.3 mi West 3.5 mph - N/A   Unknown
9:30 AM 104.0 °F 116.8 °F 73.4 °F 38% 29.50 in 4.3 mi SSW 3.5 mph - N/A   Unknown
10:00 AM 104.0 °F 116.8 °F 73.4 °F 38% 29.50 in 5.0 mi SSE 4.6 mph - N/A   Unknown
10:30 AM 104.0 °F 124.4 °F 78.8 °F 45% 29.47 in 4.3 mi ESE 5.8 mph - N/A   Unknown
11:00 AM 104.0 °F 124.4 °F 78.8 °F 45% 29.47 in 4.3 mi East 9.2 mph - N/A   Unknown
11:30 AM 102.2 °F 121.5 °F 78.8 °F 47% 29.47 in 4.3 mi East 9.2 mph - N/A   Unknown
12:00 PM 102 °F - 81 °F 43% 29.49 in 4 mi East 11.5 mph - -   Widespread Dust
12:00 PM 102.2 °F 124.9 °F 80.6 °F 50% 29.47 in 4.3 mi East 11.5 mph - N/A   Unknown
1:00 PM 102.2 °F 119.3 °F 77.0 °F 45% 29.44 in 5.0 mi East 11.5 mph - N/A   Unknown
2:00 PM 100.4 °F 122.7 °F 80.6 °F 53% 29.44 in 4.3 mi East 12.7 mph - N/A   Unknown
2:30 PM 100.4 °F 122.7 °F 80.6 °F 53% 29.44 in 4.3 mi East 11.5 mph - N/A   Unknown
3:00 PM 101 °F - 77 °F 38% 29.44 in 5 mi East 10.4 mph - -   Widespread Dust
3:00 PM 102.2 °F 119.3 °F 77.0 °F 45% 29.44 in 5.0 mi East 10.4 mph - N/A   Unknown
3:30 PM 100.4 °F 113.6 °F 75.2 °F 44% 29.42 in 5.0 mi East 11.5 mph - N/A   Unknown
4:00 PM 100.4 °F 119.5 °F 78.8 °F 50% 29.42 in 5.0 mi ESE 12.7 mph - N/A   Unknown
4:30 PM 98.6 °F 117.2 °F 78.8 °F 53% 29.42 in 5.0 mi East 11.5 mph - N/A   Unknown
5:00 PM 98.6 °F 117.2 °F 78.8 °F 53% 29.42 in 4.3 mi East 8.1 mph - N/A   Unknown
5:30 PM 96.8 °F 126.0 °F 84.2 °F 67% 29.42 in 4.3 mi East 8.1 mph - N/A   Unknown
6:00 PM 96 °F - 82 °F 57% 29.44 in 4 mi East 8.1 mph - -   Haze
6:00 PM 96.8 °F 121.7 °F 82.4 °F 63% 29.42 in 4.3 mi East 8.1 mph - N/A   Unknown
6:30 PM 96.8 °F 121.7 °F 82.4 °F 63% 29.42 in 4.3 mi East 6.9 mph - N/A   Unknown
7:00 PM 96.8 °F 118.6 °F 80.6 °F 60% 29.44 in 4.3 mi ESE 5.8 mph - N/A   Unknown
7:30 PM 95.0 °F 115.8 °F 80.6 °F 63% 29.44 in 5.0 mi SE 5.8 mph - N/A   Unknown
8:00 PM 95.0 °F 119.6 °F 82.4 °F 67% 29.44 in 5.0 mi SE 4.6 mph - N/A   Unknown
9:00 PM 95 °F - 83 °F 63% 29.48 in 5 mi ENE 4.6 mph - -   Haze
9:00 PM 95.0 °F 123.7 °F 84.2 °F 71% 29.47 in 5.0 mi ENE 4.6 mph - N/A   Unknown
10:00 PM 93.2 °F 120.9 °F 84.2 °F 75% 29.47 in 4.3 mi ENE 9.2 mph - N/A   Unknown
11:00 PM 93.2 °F 117.1 °F 82.4 °F 71% 29.47 in 5.0 mi East 6.9 mph - N/A   Unknown